ENVAEVVA

Guest
Details From ENVA - Vaernes
To EVVA - VENTSPILS INTL
Flight Number -
Tags decoded
Created
Modified
Stats Distance 491 nm / 910 km
Max Altitude 0 ft / 0 m
Waypoints 6
Social Downloads 3
Likes 0
Share VATSIM

Download

Looking for another format? Having issues loading an existing format? Contact us
Advertisement - Login to hide

Notes

Requested: ENVA SOLKA N133 MAVIP Y96 DEGAL NEKET M870 MILTA EVVA Unmatched points: N133 MAVIP M870

Route

ENVA SOLKA DEGAL NEKET MILTA EVVA

ID Type Via Altitude Latitude Longitude Leg Dist Tot Dist Heading (true) Name
O ENVA APT - 0 ft / 0 m 63.45760˚ 10.91798˚ - 0 nm - Vaernes
SOLKA FIX - 0 ft / 0 m 63.33083˚ 12.05250˚ 31 nm 31 nm 104° / 105° -
DEGAL FIX - 0 ft / 0 m 60.63883˚ 17.95667˚ 231 nm 263 nm 132° / 137° -
NEKET FIX - 0 ft / 0 m 58.30444˚ 20.57861˚ 161 nm 424 nm 149° / 151° -
MILTA FIX - 0 ft / 0 m 57.68806˚ 21.45528˚ 46 nm 471 nm 143° / 143° -
O EVVA APT - 0 ft / 0 m 57.35780˚ 21.54417˚ 20 nm 491 nm 172° / 172° VENTSPILS INTL

Altitude Profile

Advertisement - Login to hide

Weather


0- 5 10 15 20 25 30 35+ Temperature / ° C

Clouds and Precipitation
Forecast for 2018-05-27 18:00 UTC. Updated 3 hours ago

Ground ~20,000 ft ~40,000 ft Winds

ENVA

Details ICAO ENVA (TRD)
Name Vaernes
Region Norway
Timezone Europe/Oslo (UTC+2.0)
Stats Elevation 56 ft / 17 m (AMSL)
Location 63.457605° 10.917980°
Runways 1
Magnetic Variation 3.581° E

METAR

ENVA 271950Z 25014KT CAVOK 21/09 Q1025 RMK WIND 670FT 30004KT

Decode

TAF

TAF AMD ENVA 271922Z 2719/2818 25012KT CAVOK BECMG 2719/2721 12007KT BECMG 2808/2810 27012KT

Decode

Departure Runways

ID Width Length Bearing (true) Bearing (mag) Surface Threshold Offset Overrun Length
09 148 ft / 45 m 9,356 ft / 2,852 m 90.21° 86.63° Asphalt 984 ft / 300 m 0 ft / 0 m
27 148 ft / 45 m 9,356 ft / 2,852 m 270.26° 266.68° Asphalt 689 ft / 210 m 0 ft / 0 m

EVVA

Details ICAO EVVA (VTS)
Name VENTSPILS INTL
Region Latvia
Timezone Europe/Riga (UTC+3.0)
Stats Elevation 19 ft / 6 m (AMSL)
Location 57.357800° 21.544165°
Runways 1
Magnetic Variation 7.026° E

METAR

EVVA 272020Z AUTO 05005KT CAVOK 16/05 Q1027

Decode

TAF

Not found

Destination Runways

ID Width Length Bearing (true) Bearing (mag) Surface Threshold Offset Overrun Length
03 105 ft / 32 m 4,251 ft / 1,296 m 35.42° 28.39° Asphalt 0 ft / 0 m 0 ft / 0 m
21 105 ft / 32 m 4,251 ft / 1,296 m 215.43° 208.40° Asphalt 0 ft / 0 m 0 ft / 0 m

Popular Alternatives